This demonstration page uses our WeatherBlox Daily Observations layout. Learn more.

Left ArrowRight Arrow

Hourly Observations for May 20, 2017

Temp ( °F °C ) Dew Point ( °F °C ) Humidity (%) Winds ( mph kmh ) Pressure ( in mb ) Visibility ( mi km ) Precip ( " mm )
12:53 am 00:53 Clear 71 21.7 67 19.4 87 87 NW 3 6 30.05 1018 10 16 0.00 0.00
1:53 am 01:53 Clear 71 21.7 67 19.4 87 87 Calm 30.05 1018 10 16 0.00 0.00
2:53 am 02:53 Clear 68 20 66 18.9 93 93 Calm 30.04 1017 10 16 0.00 0.00
3:53 am 03:53 Clear 67 19.4 65 18.3 93 93 Calm 30.05 1018 10 16 0.00 0.00
4:53 am 04:53 Clear 67 19.4 65 18.3 93 93 Calm 30.05 1018 10 16 0.00 0.00
5:53 am 05:53 Clear 66 18.9 64 17.8 93 93 Calm 30.06 1018 10 16 0.00 0.00
6:53 am 06:53 Sunny 64 17.8 64 17.8 100 100 Calm 30.08 1019 10 16 0.00 0.00
7:53 am 07:53 Sunny 70 21.1 67 19.4 90 90 N 3 6 30.09 1019 10 16 0.00 0.00
8:53 am 08:53 Sunny 75 23.9 69 20.6 82 82 SE 5 7 30.09 1019 10 16 0.00 0.00
9:53 am 09:53 Sunny 79 26.1 70 21.1 74 74 VRB 5 7 30.07 1018 10 16 0.00 0.00
10:53 am 10:53 Sunny 83 28.3 69 20.6 63 63 SE 7 11 30.07 1018 10 16 0.00 0.00
11:53 am 11:53 Partly Cloudy 84 28.9 70 21.1 63 63 undefined N/A 30.08 1019 10 16 0.00 0.00
12:53 pm 12:53 Mostly Sunny 85 29.4 69 20.6 59 59 S 9 15 30.09 1019 10 16 0.00 0.00
1:53 pm 13:53 Mostly Sunny 87 30.6 68 20 53 53 ESE 7 11 30.06 1018 10 16 0.00 0.00
2:53 pm 14:53 Mostly Cloudy 85 29.4 69 20.6 59 59 ESE 8 13 30.03 1017 10 16 0.00 0.00
3:53 pm 15:53 Mostly Sunny 87 30.6 70 21.1 57 57 ESE 10 17 30.00 1016 10 16 0.00 0.00
4:09 pm 16:09 Partly Cloudy with Nearby Thunderstorms 86 30 69 20.6 57 57 ESE 9 15 30.00 1016 10 16 0.00 0.00
4:27 pm 16:27 Partly Cloudy 85 29.4 69 20.6 59 59 VRB 7 11 30.00 1016 10 16 0.00 0.00
4:53 pm 16:53 Mostly Cloudy 84 28.9 70 21.1 63 63 SSE 7 11 29.99 1016 10 16 0.00 0.03
5:53 pm 17:53 Mostly Cloudy 84 28.9 70 21.1 63 63 SE 9 15 29.99 1016 10 16 0.00 0.00
6:12 pm 18:12 Mostly Cloudy with Nearby Thunderstorms 82 27.8 70 21.1 67 67 SE 26 43 30.00 1016 10 16 0.00 0.00
6:22 pm 18:22 Cloudy with Thunderstorms 72 22.2 70 21.1 94 94 SSE 20 31 30.03 1017 3 5 0.02 0.51
6:26 pm 18:26 Cloudy with Strong Thunderstorms 71 21.7 69 20.6 94 94 S 15 24 30.03 1017 2 3 0.06 1.52
6:41 pm 18:41 Cloudy with Thunderstorms 71 21.7 69 20.6 94 94 VRB 3 6 30.03 1017 4 6 0.23 5.84
6:53 pm 18:53 Cloudy with Thunderstorms 71 21.7 69 20.6 94 94 S 5 7 30.05 1018 10 16 0.23 5.84
7:07 pm 19:07 Mostly Cloudy with Nearby Thunderstorms 72 22.2 69 20.6 91 91 SSW 5 7 30.03 1017 10 16 0.00 0.00
7:17 pm 19:17 Mostly Cloudy 71 21.7 68 20 90 90 WSW 7 11 30.03 1017 10 16 0.00 0.00
7:53 pm 19:53 Mostly Cloudy with Light Rain 70 21.1 67 19.4 90 90 W 5 7 30.04 1017 10 16 0.00 0.03
8:53 pm 20:53 Partly Cloudy with Light Rain 71 21.7 68 20 90 90 E 6 9 30.06 1018 10 16 0.01 0.25
9:53 pm 21:53 Mostly Cloudy with Light Rain 69 20.6 69 20.6 100 100 NNE 5 7 30.08 1019 10 16 0.00 0.03
10:53 pm 22:53 Cloudy 70 21.1 70 21.1 100 100 NE 6 9 30.08 1019 10 16 0.04 1.02
11:39 pm 23:39 Cloudy with Nearby Thunderstorms 70 21.1 70 21.1 100 100 N 3 6 30.12 1020 10 16 0.00 0.03
11:53 pm 23:53 Cloudy with Nearby Thunderstorms 70 21.1 70 21.1 100 100 WSW 3 6 30.09 1019 10 16 0.00 0.03

Powered by AerisWeather